星链-3537 (STARLINK-3537 )

导读 | 豆包AI

STARLINK-3537是美国SpaceX公司星链(Starlink)项目中的一颗低轨通信卫星,于2022年3月19日发射升空。作为星链星座的组成部分,它运行在近地轨道,属于第一代星链卫星,采用平板设计,配备霍尔推进器与太阳能电池阵,具备自主避撞能力,旨在为全球偏远地区提供低延迟高速宽带互联网服务,退役后会主动离轨并在大气层中烧毁。

Basic Information
目录编号:
52088
目录名称:
STARLINK-3537
国际标识:
2022-029A
轨道中心:
EARTH
卫星名称:
星链-3537
卫星全名:
星链-3537 (STARLINK-3537 )
卫星状态:
已陨落 最后检测时间 2025-08-08
发射日期:
2022-03-19 UTC
国别 :
美国 (US)
星等 :
--
Orbit Information
数据来源 国际轨道数据
星历时间: 2025-08-08T15:03:13+0800
轨道信息已过期218天
半长轴: 6531.827km
偏心率: 0.001033
轨道倾角: 53.192°
近地点辐角 234.786°
升交点赤经 157.252°
平近点角 258.521°
近地点: 146.944km
远地点: 160.44km
周期: 87.561分钟
每日圈数: 16.445639
Detailed Information
固有亮度:
5
最大亮度:
2.5
卫星平台:
Starlink v1.5
覆盖范围:
全球
运营商:
太空探索技术公司
运营商所在国:
美国
制造商(研发单位):
太空探索技术公司
制造商所在国:
美国
使用方式:
暂无
Satellite Introduction
星链(Starlink)计划是由太空探索技术公司(SpaceX)提出的一个巨型低轨卫星互联网星座项目,计划在2019年至2024年间在太空搭建由约1.2万颗卫星组成的“星链”网络,其中1584颗将部署在地球上空550千米处的近地轨道,并从2020年开始工作。该卫星仍在工作。